Oakland, ME

6:03 AM EST on December 03, 2016 (GMT -0500)
Waterville Lafleur

Weather History for KWVL - December, 2012

Change the Weather History Date:

Tuesday, December 18, 2012

  Actual Average Record
Temperature  
Mean Temperature 34 °F -  
Max Temperature 39 °F 35 °F 53 °F (1973)
Min Temperature 30 °F 14 °F -5 °F (1958)
Degree Days  
Heating Degree Days 30    
Moisture  
Dew Point 34 °F    
Average Humidity 96    
Maximum Humidity 100    
Minimum Humidity 87    
Precipitation  
Precipitation 0.48 in - - ()
Sea Level Pressure  
Sea Level Pressure 29.63 in    
Wind  
Wind Speed 12 mph (NNE)    
Max Wind Speed 17 mph    
Max Gust Speed 22 mph    
Visibility 6 miles    
Events      
Averages and records for this station are not official NWS values.
T = Trace of Precipitation, MM = Missing Value Source: NWS Daily Summary

Daily Weather History Graph

Daily Weather History Graph

Search for Another Location

Airport or City:

Trip Planner

Search our weather history database for the weather conditions in past years. The results will help you decide how hot, cold, wet, or windy it might be!

Date:

Astronomy

Dec. 18, 2012 Rise Set
Actual Time 7:10 AM EST 4:00 PM EST
Civil Twilight 6:37 AM EST 4:33 PM EST
Nautical Twilight 6:00 AM EST 5:10 PM EST
Astronomical Twilight 5:24 AM EST 5:46 PM EST
Moon 10:36 AM EST (12/18) 10:37 PM EST (12/18)
Length of Visible Light 9h 56m
Length of Day
8h 49m
Waxing Crescent, 34% of the Moon is Illuminated
Dec 18
Waxing Crescent
Dec 20
First Quarter
Dec 28
Full
Jan 4
Last Quarter
Jan 11
New

Hourly Weather History & Observations

Time (EST) Temp. Windchill Dew Point Humidity Pressure Visibility Wind Dir Wind Speed Gust Speed Precip Events Conditions
12:15 AM 30.2 °F 20.8 °F 30.2 °F 100% 29.93 in 8.0 mi NNE 11.5 mph - N/A   Overcast
12:35 AM 30.2 °F 20.8 °F 30.2 °F 100% 29.92 in 10.0 mi NNE 11.5 mph - 0.01 in   Overcast
12:55 AM 30.2 °F 21.3 °F 30.2 °F 100% 29.91 in 10.0 mi NNE 10.4 mph - 0.01 in   Overcast
1:15 AM 32.0 °F 22.5 °F 30.2 °F 93% 29.90 in 10.0 mi NNE 12.7 mph - 0.01 in   Overcast
1:35 AM 32.0 °F 23.0 °F 30.2 °F 93% 29.90 in 10.0 mi NNE 11.5 mph - 0.01 in   Overcast
1:55 AM 32.0 °F 23.6 °F 30.2 °F 93% 29.89 in 10.0 mi NNE 10.4 mph 16.1 mph 0.01 in   Overcast
2:15 AM 32.0 °F 24.2 °F 30.2 °F 93% 29.88 in 9.0 mi NNE 9.2 mph 16.1 mph 0.01 in   Overcast
2:35 AM 33.8 °F 25.8 °F 30.2 °F 87% 29.86 in 8.0 mi NNE 10.4 mph 16.1 mph 0.04 in   Overcast
2:55 AM 33.8 °F 26.4 °F 32.0 °F 93% 29.84 in 10.0 mi NNE 9.2 mph - 0.06 in   Overcast
3:15 AM 33.8 °F 25.8 °F 32.0 °F 93% 29.84 in 10.0 mi NE 10.4 mph - 0.01 in   Overcast
3:35 AM 33.8 °F 27.0 °F 32.0 °F 93% 29.83 in 10.0 mi NE 8.1 mph - 0.02 in   Overcast
3:55 AM 33.8 °F 26.4 °F 32.0 °F 93% 29.82 in 10.0 mi NNE 9.2 mph - 0.03 in   Overcast
4:15 AM 33.8 °F 25.8 °F 32.0 °F 93% 29.81 in 10.0 mi NNE 10.4 mph - 0.01 in   Overcast
4:35 AM 33.8 °F 25.3 °F 32.0 °F 93% 29.79 in 10.0 mi NNE 11.5 mph - 0.01 in   Overcast
4:55 AM 33.8 °F 25.8 °F 32.0 °F 93% 29.78 in 6.0 mi NNE 10.4 mph - 0.01 in   Overcast
5:15 AM 33.8 °F 25.3 °F 33.8 °F 100% 29.77 in 7.0 mi NNE 11.5 mph - N/A   Overcast
5:35 AM 33.8 °F 24.8 °F 33.8 °F 100% 29.77 in 6.0 mi NNE 12.7 mph - N/A   Overcast
5:55 AM 33.8 °F 25.8 °F 33.8 °F 100% 29.76 in 3.0 mi NNE 10.4 mph - N/A   Overcast
6:15 AM 33.8 °F 25.3 °F 33.8 °F 100% 29.75 in 5.0 mi NE 11.5 mph 16.1 mph N/A   Overcast
6:35 AM 35.6 °F 27.5 °F 33.8 °F 93% 29.75 in 4.0 mi NE 11.5 mph 17.3 mph N/A   Overcast
6:55 AM 35.6 °F 28.0 °F 33.8 °F 93% 29.74 in 4.0 mi NNE 10.4 mph - 0.02 in   Overcast
7:35 AM 35.6 °F 27.5 °F 33.8 °F 93% 29.72 in 6.0 mi NNE 11.5 mph - 0.04 in   Overcast
7:55 AM 35.6 °F 26.6 °F 33.8 °F 93% 29.71 in 3.0 mi NNE 13.8 mph 19.6 mph 0.05 in   Overcast
8:15 AM 35.6 °F 26.6 °F 33.8 °F 93% 29.69 in 3.0 mi NNE 13.8 mph - N/A   Overcast
8:35 AM 35.6 °F 27.1 °F 33.8 °F 93% 29.68 in 3.0 mi NNE 12.7 mph 17.3 mph 0.01 in   Overcast
8:55 AM 35.6 °F 27.1 °F 35.6 °F 100% 29.67 in 6.0 mi NNE 12.7 mph 16.1 mph 0.02 in   Overcast
9:15 AM 35.6 °F 27.5 °F 35.6 °F 100% 29.67 in 8.0 mi NNE 11.5 mph - 0.01 in   Overcast
9:35 AM 35.6 °F 28.0 °F 35.6 °F 100% 29.66 in 6.0 mi NE 10.4 mph - 0.02 in   Overcast
9:55 AM 35.6 °F 29.2 °F 35.6 °F 100% 29.66 in 3.0 mi NNE 8.1 mph - 0.04 in   Overcast
10:15 AM 35.6 °F 27.5 °F 35.6 °F 100% 29.65 in 3.0 mi NNE 11.5 mph - 0.02 in   Overcast
10:35 AM 37.4 °F 30.8 °F 35.6 °F 93% 29.63 in 1.8 mi NNE 9.2 mph - 0.03 in   Overcast
10:55 AM 37.4 °F 30.3 °F 35.6 °F 93% 29.62 in 2.5 mi NNE 10.4 mph - 0.03 in   Overcast
11:15 AM 37.4 °F 30.3 °F 35.6 °F 93% 29.61 in 2.0 mi NNE 10.4 mph - N/A   Overcast
11:35 AM 37.4 °F 30.8 °F 35.6 °F 93% 29.60 in 2.5 mi NNE 9.2 mph - 0.01 in   Overcast
12:15 PM 37.4 °F 29.8 °F 37.4 °F 100% 29.57 in 9.0 mi NNE 11.5 mph - 0.04 in   Overcast
12:35 PM 37.4 °F 31.4 °F 37.4 °F 100% 29.57 in 9.0 mi NNE 8.1 mph - 0.07 in   Overcast
12:55 PM 37.4 °F 30.3 °F 37.4 °F 100% 29.57 in 10.0 mi NNE 10.4 mph - 0.11 in   Overcast
1:15 PM 37.4 °F 31.4 °F 37.4 °F 100% 29.55 in 10.0 mi NNE 8.1 mph - 0.02 in   Overcast
1:35 PM 39.2 °F 32.0 °F 37.4 °F 93% 29.55 in 10.0 mi NNE 11.5 mph - 0.02 in   Overcast
1:55 PM 37.4 °F 30.8 °F 37.4 °F 100% 29.55 in 5.0 mi NNE 9.2 mph - 0.02 in   Overcast
2:15 PM 37.4 °F 29.3 °F 37.4 °F 100% 29.54 in 2.5 mi NNE 12.7 mph - 0.01 in   Overcast
2:35 PM 37.4 °F 29.8 °F 37.4 °F 100% 29.54 in 2.5 mi NNE 11.5 mph - 0.01 in   Overcast
2:55 PM 37.4 °F 29.8 °F 35.6 °F 93% 29.54 in 3.0 mi NNE 11.5 mph - 0.02 in   Overcast
3:15 PM 35.6 °F 26.6 °F 35.6 °F 100% 29.53 in 5.0 mi NNE 13.8 mph - 0.01 in   Overcast
3:35 PM 35.6 °F 26.2 °F 35.6 °F 100% 29.53 in 5.0 mi NNE 15.0 mph - 0.01 in   Overcast
3:55 PM 35.6 °F 26.6 °F 35.6 °F 100% 29.53 in 2.0 mi NNE 13.8 mph - 0.01 in   Overcast
4:15 PM 35.6 °F 27.1 °F 35.6 °F 100% 29.52 in 2.5 mi NNE 12.7 mph - 0.02 in   Overcast
4:35 PM 35.6 °F 27.1 °F 35.6 °F 100% 29.52 in 3.0 mi NNE 12.7 mph 17.3 mph 0.02 in   Overcast
4:55 PM 35.6 °F 27.5 °F 35.6 °F 100% 29.52 in 5.0 mi NNE 11.5 mph 19.6 mph 0.02 in   Overcast
5:15 PM 35.6 °F 27.1 °F 33.8 °F 93% 29.51 in 5.0 mi NNE 12.7 mph 19.6 mph N/A   Overcast
5:35 PM 35.6 °F 27.1 °F 33.8 °F 93% 29.51 in 5.0 mi NNE 12.7 mph 17.3 mph N/A   Overcast
5:55 PM 35.6 °F 27.5 °F 33.8 °F 93% 29.51 in 6.0 mi NNE 11.5 mph 16.1 mph N/A   Overcast
6:15 PM 35.6 °F 26.6 °F 33.8 °F 93% 29.50 in 5.0 mi NNE 13.8 mph - N/A   Overcast
6:35 PM 35.6 °F 26.6 °F 33.8 °F 93% 29.49 in 5.0 mi NNE 13.8 mph - N/A   Overcast
6:55 PM 35.6 °F 25.5 °F 33.8 °F 93% 29.49 in 5.0 mi NNE 17.3 mph - N/A   Overcast
7:15 PM 35.6 °F 27.5 °F 33.8 °F 93% 29.49 in 7.0 mi NNE 11.5 mph 18.4 mph N/A   Overcast
7:35 PM 35.6 °F 27.1 °F 33.8 °F 93% 29.49 in 5.0 mi NNE 12.7 mph 18.4 mph N/A   Overcast
7:55 PM 35.6 °F 27.1 °F 33.8 °F 93% 29.49 in 5.0 mi NNE 12.7 mph - N/A   Overcast
8:15 PM 35.6 °F 27.1 °F 33.8 °F 93% 29.49 in 5.0 mi NNE 12.7 mph - N/A   Overcast
8:35 PM 35.6 °F 25.9 °F 33.8 °F 93% 29.48 in 4.0 mi NNE 16.1 mph 19.6 mph N/A   Overcast
8:55 PM 35.6 °F 25.9 °F 33.8 °F 93% 29.47 in 4.0 mi NNE 16.1 mph 21.9 mph 0.01 in   Overcast
9:15 PM 35.6 °F 25.9 °F 33.8 °F 93% 29.47 in 3.0 mi NNE 16.1 mph - N/A   Overcast
9:35 PM 33.8 °F 23.5 °F 32.0 °F 93% 29.46 in 4.0 mi NNE 16.1 mph 21.9 mph N/A   Overcast
9:55 PM 33.8 °F 25.3 °F 32.0 °F 93% 29.46 in 4.0 mi NNE 11.5 mph - N/A   Overcast
10:15 PM 33.8 °F 23.9 °F 33.8 °F 100% 29.45 in 4.0 mi NNE 15.0 mph 19.6 mph N/A   Overcast
10:35 PM 33.8 °F 23.5 °F 33.8 °F 100% 29.44 in 5.0 mi NNE 16.1 mph 21.9 mph N/A   Overcast
10:55 PM 33.8 °F 24.3 °F 33.8 °F 100% 29.44 in 5.0 mi NNE 13.8 mph 20.7 mph N/A   Overcast
11:15 PM 33.8 °F 24.3 °F 33.8 °F 100% 29.44 in 4.0 mi NNE 13.8 mph 21.9 mph N/A   Overcast
11:35 PM 33.8 °F 23.5 °F 33.8 °F 100% 29.43 in 4.0 mi NNE 16.1 mph 20.7 mph N/A   Overcast
11:55 PM 33.8 °F 23.9 °F 33.8 °F 100% 29.42 in 4.0 mi NNE 15.0 mph 20.7 mph N/A   Overcast